FW7504 Weather Reports


time (UTC)temp
F
wind
direction
speed
knots
gust
knots
rain 1hr
in
rain 24hr
in
rain mn
in
humidity
%
barometer
mb
20260903153102 89 0 0.9 4.3 0.00 0.00 0.00 66 1019.6
20260903152553 89 5 1.7 4.3 0.00 0.00 0.00 66 1019.7
20260903152053 89 0 1.7 4.3 0.00 0.00 0.00 66 1019.7
20260903151602 89 51 0.0 3.5 0.00 0.00 0.00 67 1019.7
20260903151053 89 0 0.0 2.6 0.00 0.00 0.00 67 1019.8
20260903150553 89 0 0.0 2.6 0.00 0.00 0.00 67 1019.8
20260903150114 88 0 0.0 2.6 0.00 0.00 0.00 68 1019.8
20260903145552 88 53 0.9 2.6 0.00 0.00 0.00 69 1019.7
20260903145052 87 10 0.0 3.5 0.00 0.00 0.00 70 1019.7
20260903144602 87 233 0.9 3.5 0.00 0.00 0.00 69 1019.8
20260903144054 87 0 0.9 3.5 0.00 0.00 0.00 70 1019.9
20260903143553 87 20 0.0 4.3 0.00 0.00 0.00 70 1019.8
20260903143103 87 342 0.9 4.3 0.00 0.00 0.00 70 1019.8
20260903142553 87 100 0.9 3.5 0.00 0.00 0.00 70 1019.9
20260903142052 87 0 0.9 2.6 0.00 0.00 0.00 71 1019.7
20260903141601 86 0 0.0 2.6 0.00 0.00 0.00 75 1019.8
20260903141054 86 0 0.9 2.6 0.00 0.00 0.00 75 1019.8
20260903140554 85 44 0.0 2.6 0.00 0.00 0.00 75 1019.9
20260903140101 85 0 0.0 3.5 0.00 0.00 0.00 76 1019.7
20260903135552 84 9 0.9 3.5 0.00 0.00 0.00 78 1019.7
20260903135052 83 17 0.9 3.5 0.00 0.00 0.00 78 1019.8
20260903134606 83 95 1.7 2.6 0.00 0.00 0.00 79 1019.8
20260903134050 82 0 0.0 2.6 0.00 0.00 0.00 80 1019.8
20260903133556 82 0 0.9 3.5 0.00 0.00 0.00 82 1019.9
20260903133106 81 40 0.9 3.5 0.00 0.00 0.00 82 1019.8
20260903132552 80 40 0.9 3.5 0.00 0.00 0.00 83 1019.9
20260903132052 80 343 0.9 3.5 0.00 0.00 0.00 83 1019.7
20260903131606 79 0 0.9 2.6 0.00 0.00 0.00 84 1019.8
20260903131056 79 0 0.9 3.5 0.00 0.00 0.00 86 1019.8
20260903130555 78 5 0.9 3.5 0.00 0.00 0.00 87 1019.8
20260903130117 78 350 0.9 3.5 0.00 0.00 0.00 87 1019.8
20260903125553 77 43 0.0 2.6 0.00 0.00 0.00 88 1019.8
20260903125054 77 32 0.9 2.6 0.00 0.00 0.00 88 1020.0
20260903124610 76 352 0.0 2.6 0.00 0.00 0.00 89 1020.0
20260903124052 76 0 0.9 2.6 0.00 0.00 0.00 89 1019.9
20260903123555 75 352 0.0 2.6 0.00 0.00 0.00 90 1020.0
20260903123102 75 0 0.0 2.6 0.00 0.00 0.00 90 1019.9
20260903122556 75 329 0.9 2.6 0.00 0.00 0.00 90 1020.0
20260903122053 75 0 0.0 2.6 0.00 0.00 0.00 90 1020.0
20260903121602 75 0 0.0 2.6 0.00 0.00 0.00 90 1020.0
20260903121052 74 0 0.9 2.6 0.00 0.00 0.00 91 1019.9
20260903120553 74 0 0.0 0.0 0.00 0.00 0.00 90 1019.8
20260903120106 74 0 0.0 1.7 0.00 0.00 0.00 90 1019.9
20260903115554 74 0 0.0 1.7 0.00 0.00 0.00 91 1019.7
20260903115052 74 360 0.0 0.9 0.00 0.00 0.00 91 1019.7
20260903114608 74 0 0.0 0.0 0.00 0.00 0.00 90 1019.7
20260903114052 74 0 0.0 0.0 0.00 0.00 0.00 90 1019.7
20260903113552 74 0 0.0 0.0 0.00 0.00 0.00 90 1019.6
20260903113102 74 0 0.0 0.0 0.00 0.00 0.00 89 1019.5
20260903112554 74 0 0.0 0.0 0.00 0.00 0.00 89 1019.3
20260903112053 74 0 0.0 0.0 0.00 0.00 0.00 89 1019.4
20260903111626 74 0 0.0 0.0 0.00 0.00 0.00 89 1019.3
20260903111052 74 0 0.0 0.0 0.00 0.00 0.00 90 1019.2
20260903110552 74 0 0.0 0.0 0.00 0.00 0.00 89 1019.2
20260903110113 74 0 0.0 0.0 0.00 0.00 0.00 90 1019.1
20260903105553 74 0 0.0 0.0 0.00 0.00 0.00 89 1019.1
20260903105053 74 0 0.0 0.0 0.00 0.00 0.00 89 1019.0
20260903104633 74 0 0.0 0.0 0.00 0.00 0.00 89 1018.9
20260903104053 74 0 0.0 0.0 0.00 0.00 0.00 89 1019.0
20260903103555 74 0 0.0 0.0 0.00 0.00 0.00 89 1018.9
20260903103105 74 0 0.0 0.0 0.00 0.00 0.00 89 1019.0
20260903102552 74 0 0.0 0.0 0.00 0.00 0.00 89 1018.9
20260903102052 74 0 0.0 0.0 0.00 0.00 0.00 89 1018.9
20260903101606 74 0 0.0 0.0 0.00 0.00 0.00 89 1018.8
20260903101053 74 0 0.0 0.0 0.00 0.00 0.00 88 1018.8
20260903100553 75 0 0.0 0.0 0.00 0.00 0.00 88 1018.8
20260903095552 75 0 0.0 0.0 0.00 0.00 0.00 88 1018.9
20260903095052 75 0 0.0 0.0 0.00 0.00 0.00 88 1018.8
20260903094609 75 0 0.0 0.0 0.00 0.00 0.00 88 1018.8
20260903094055 75 0 0.0 0.0 0.00 0.00 0.00 88 1018.8
20260903093556 75 0 0.0 0.0 0.00 0.00 0.00 87 1018.7
20260903093105 75 0 0.0 0.0 0.00 0.00 0.00 87 1018.7
20260903092552 75 0 0.0 0.0 0.00 0.00 0.00 87 1018.9
20260903092051 75 0 0.0 0.0 0.00 0.00 0.00 87 1018.8
20260903091612 75 0 0.0 0.0 0.00 0.00 0.00 87 1018.8
20260903091055 75 0 0.0 0.0 0.00 0.00 0.00 87 1018.7
20260903090553 75 0 0.0 0.0 0.00 0.00 0.00 87 1018.7
20260903090104 75 0 0.0 0.0 0.00 0.00 0.00 87 1018.7
20260903085552 75 0 0.0 0.0 0.00 0.00 0.00 87 1018.7
20260903085052 75 0 0.0 0.0 0.00 0.00 0.00 87 1018.7
20260903084600 75 0 0.0 0.0 0.00 0.00 0.00 86 1018.7
20260903084052 76 0 0.0 0.0 0.00 0.00 0.00 86 1018.6
20260903083553 76 0 0.0 0.0 0.00 0.00 0.00 86 1018.7
20260903083100 76 0 0.0 0.0 0.00 0.00 0.00 86 1018.6
20260903082552 76 0 0.0 0.0 0.00 0.00 0.00 86 1018.7
20260903082052 76 0 0.0 0.0 0.00 0.00 0.00 86 1018.6
20260903081603 76 0 0.0 0.0 0.00 0.00 0.00 86 1018.6
20260903081055 76 0 0.0 0.0 0.00 0.00 0.00 86 1018.6
20260903080555 76 0 0.0 0.0 0.00 0.00 0.00 85 1018.7
20260903075556 76 0 0.0 0.0 0.00 0.00 0.00 86 1018.6
20260903075052 76 0 0.0 0.0 0.00 0.00 0.00 86 1018.8
20260903074604 76 0 0.0 0.0 0.00 0.00 0.00 85 1018.8
20260903074053 76 0 0.0 0.0 0.00 0.00 0.00 85 1018.6
20260903073553 76 0 0.0 0.0 0.00 0.00 0.00 85 1018.7
20260903073111 77 0 0.0 0.0 0.00 0.00 0.00 85 1018.6
20260903072556 77 0 0.0 0.0 0.00 0.00 0.00 84 1018.6
20260903072053 77 0 0.0 0.0 0.00 0.00 0.00 84 1018.6
20260903071605 77 0 0.0 0.0 0.00 0.00 0.00 84 1018.5
20260903071052 77 0 0.0 0.0 0.00 0.00 0.00 84 1018.6
20260903070554 77 0 0.0 0.0 0.00 0.00 0.00 84 1018.5
20260903070103 77 0 0.0 0.0 0.00 0.00 0.00 84 1018.4
20260903065552 77 0 0.0 0.0 0.00 0.00 0.00 84 1018.4
20260903065052 77 0 0.0 0.0 0.00 0.00 0.00 83 1018.4
20260903064601 77 0 0.0 0.0 0.00 0.00 0.00 83 1018.3
20260903064052 77 0 0.0 0.0 0.00 0.00 0.00 83 1018.3
20260903063552 78 0 0.0 0.0 0.00 0.00 0.00 83 1018.5
20260903063102 78 0 0.0 0.0 0.00 0.00 0.00 83 1018.6
20260903062553 78 0 0.0 0.0 0.00 0.00 0.00 83 1018.6
20260903062053 78 0 0.0 0.0 0.00 0.00 0.00 82 1018.7
20260903061612 78 0 0.0 0.0 0.00 0.00 0.00 82 1018.7
20260903061050 78 0 0.0 0.0 0.00 0.00 0.00 82 1018.9
20260903060553 78 0 0.0 0.0 0.00 0.00 0.00 82 1018.6
20260903060108 78 0 0.0 0.0 0.00 0.00 0.00 82 1018.9
20260903055553 78 0 0.0 0.0 0.00 0.00 0.00 82 1018.9
20260903055053 78 0 0.0 0.0 0.00 0.00 0.00 82 1019.0
20260903054601 79 0 0.0 0.0 0.00 0.00 0.00 82 1019.0
20260903054052 79 0 0.0 0.0 0.00 0.00 0.00 81 1018.8
20260903053551 79 0 0.0 0.0 0.00 0.00 0.00 81 1018.7
20260903053112 79 0 0.0 0.0 0.00 0.00 0.00 81 1018.7
20260903052550 79 0 0.0 0.0 0.00 0.00 0.00 80 1018.7
20260903052052 79 0 0.0 0.0 0.00 0.00 0.00 81 1018.8
20260903051602 79 0 0.0 0.0 0.00 0.00 0.00 81 1018.7
20260903051051 79 0 0.0 0.0 0.00 0.00 0.00 80 1018.7
20260903050552 79 0 0.0 0.0 0.00 0.00 0.00 80 1018.7
20260903050107 79 0 0.0 0.0 0.00 0.00 0.00 80 1018.7
20260903045549 79 0 0.0 0.0 0.00 0.00 0.00 80 1018.8
20260903045051 79 0 0.0 0.0 0.00 0.00 0.00 80 1018.7
20260903044608 80 0 0.0 0.0 0.00 0.00 0.00 80 1018.6
20260903044053 80 0 0.0 0.0 0.00 0.00 0.00 80 1018.7
20260903043551 80 0 0.0 0.0 0.00 0.00 0.00 79 1018.7
20260903043104 80 0 0.0 0.0 0.00 0.00 0.00 78 1018.6
20260903042552 80 0 0.0 0.0 0.00 0.00 0.00 78 1018.6
20260903042053 80 0 0.0 1.7 0.00 0.00 0.00 78 1018.7
20260903041604 80 0 0.0 1.7 0.00 0.00 0.00 78 1018.7
20260903041053 81 0 0.0 0.9 0.00 0.00 0.00 77 1018.6
20260903040552 81 0 0.0 0.9 0.00 0.00 0.00 77 1018.6
20260903040109 81 0 0.0 0.0 0.00 0.00 0.00 77 1018.6
20260903035549 81 0 0.0 0.0 0.00 0.00 0.00 77 1018.5
20260903035049 82 0 0.0 0.0 0.00 0.00 0.00 76 1018.6
20260903034601 82 0 0.0 0.0 0.00 0.00 0.00 76 1018.7
20260903034053 82 0 0.0 0.0 0.00 0.00 0.00 74 1018.8
20260903033551 82 0 0.0 0.0 0.00 0.00 0.00 74 1018.7
20260903033058 82 0 0.0 0.0 0.00 0.00 0.00 74 1018.7
20260903032552 82 0 0.0 0.0 0.00 0.00 0.00 75 1018.7
20260903032054 82 0 0.0 0.0 0.00 0.00 0.00 76 1018.6
20260903031607 83 0 0.0 0.0 0.00 0.00 0.00 76 1018.7
20260903031052 83 0 0.0 0.0 0.00 0.00 0.00 75 1018.7
20260903030552 83 0 0.0 0.0 0.00 0.00 0.00 75 1018.7
20260903030115 83 0 0.0 0.0 0.00 0.00 0.00 74 1018.7
20260903025619 83 0 0.0 0.0 0.00 0.00 0.00 73 1018.7
20260903025053 83 0 0.0 0.0 0.00 0.00 0.00 73 1018.7
20260903024559 83 0 0.0 0.0 0.00 0.00 0.00 72 1018.8
20260903024049 84 0 0.0 0.0 0.00 0.00 0.00 73 1018.7
20260903023548 84 0 0.0 0.0 0.00 0.00 0.00 72 1018.7
20260903023100 84 0 0.0 0.0 0.00 0.00 0.00 71 1018.6
20260903022555 85 0 0.0 0.0 0.00 0.00 0.00 70 1018.5
20260903022048 85 0 0.0 3.5 0.00 0.00 0.00 69 1018.5
20260903021603 85 0 0.0 3.5 0.00 0.00 0.00 68 1018.6
20260903021052 85 360 0.9 3.5 0.00 0.00 0.00 68 1018.7
20260903020552 85 360 0.9 2.6 0.00 0.00 0.00 67 1018.5
20260903020101 85 360 1.7 3.5 0.00 0.00 0.00 69 1018.7
20260903015553 85 360 0.9 3.5 0.00 0.00 0.00 68 1018.5
20260903015052 85 360 0.9 2.6 0.00 0.00 0.00 67 1018.5
20260903014611 85 360 0.9 2.6 0.00 0.00 0.00 68 1018.5
20260903014052 85 360 0.9 2.6 0.00 0.00 0.00 67 1018.5
20260903013555 85 360 0.9 2.6 0.00 0.00 0.00 67 1018.4
20260903013106 86 360 0.0 2.6 0.00 0.00 0.00 68 1018.4
20260903012552 86 0 0.9 2.6 0.00 0.00 0.00 67 1018.4
20260903012052 86 360 0.0 1.7 0.00 0.00 0.00 67 1018.3
20260903011618 86 0 0.0 1.7 0.00 0.00 0.00 67 1018.1
20260903011049 86 360 0.0 1.7 0.00 0.00 0.00 67 1018.2
20260903010554 86 360 0.9 1.7 0.00 0.00 0.00 67 1018.1
20260903010118 87 360 0.0 1.7 0.00 0.00 0.00 66 1018.1
20260903005549 87 0 0.9 1.7 0.00 0.00 0.00 66 1018.1
20260903005048 87 0 0.0 1.7 0.00 0.00 0.00 66 1018.0
20260903004600 87 0 0.0 1.7 0.00 0.00 0.00 66 1017.9
20260903004053 88 360 0.0 0.9 0.00 0.00 0.00 65 1017.9
20260903003551 88 0 0.0 0.0 0.00 0.00 0.00 65 1017.8
20260903003106 89 0 0.0 0.0 0.00 0.00 0.00 66 1017.8
20260903002552 89 0 0.0 0.0 0.00 0.00 0.00 65 1017.8
20260903002052 90 0 0.0 0.9 0.00 0.00 0.00 63 1017.9
20260903001602 90 0 0.0 0.9 0.00 0.00 0.00 64 1017.8
20260903001054 91 0 0.0 0.0 0.00 0.00 0.00 64 1017.6
20260903000552 91 0 0.0 0.0 0.00 0.00 0.00 63 1017.6
20260903000104 92 0 0.0 0.0 0.00 0.00 0.00 62 1017.7
20260902235552 92 0 0.0 0.0 0.00 0.00 0.00 61 1017.7
20260902235052 92 0 0.0 0.0 0.00 0.00 0.00 60 1017.7
20260902234601 93 0 0.0 0.0 0.00 0.00 0.00 59 1017.6
20260902234052 93 0 0.0 0.0 0.00 0.00 0.00 58 1017.8
20260902233553 93 0 0.0 0.0 0.00 0.00 0.00 57 1017.7
20260902233100 93 0 0.0 0.0 0.00 0.00 0.00 57 1017.7
20260902232552 94 0 0.0 0.0 0.00 0.00 0.00 57 1017.7
20260902232052 94 0 0.0 0.0 0.00 0.00 0.00 57 1017.8
20260902231612 94 0 0.0 0.0 0.00 0.00 0.00 57 1017.7
20260902231052 94 0 0.0 0.0 0.00 0.00 0.00 57 1017.8
20260902230548 94 0 0.0 0.0 0.00 0.00 0.00 56 1017.8
20260902230110 95 0 0.0 3.5 0.00 0.00 0.00 53 1017.9
20260902225553 95 0 0.0 3.5 0.00 0.00 0.00 52 1018.0
20260902225052 95 360 0.0 3.5 0.00 0.00 0.00 50 1017.9
20260902224608 95 0 0.9 3.5 0.00 0.00 0.00 50 1018.0
20260902224054 96 360 0.0 1.7 0.00 0.00 0.00 50 1017.9
20260902223552 96 0 0.0 2.6 0.00 0.00 0.00 50 1018.0
20260902223107 96 0 0.0 2.6 0.00 0.00 0.00 48 1017.9
20260902222553 96 0 0.0 2.6 0.00 0.00 0.00 48 1018.0
20260902222052 97 360 0.9 2.6 0.00 0.00 0.00 47 1018.0
20260902221628 97 0 0.0 2.6 0.00 0.00 0.00 48 1018.0
20260902221055 97 360 0.9 4.3 0.00 0.00 0.00 47 1018.0
20260902220552 97 0 0.0 4.3 0.00 0.00 0.00 46 1018.0
20260902220110 97 360 1.7 4.3 0.00 0.00 0.00 45 1018.1
20260902215603 97 360 0.9 3.5 0.00 0.00 0.00 47 1018.1
20260902215052 97 0 0.0 0.9 0.00 0.00 0.00 47 1018.1
20260902214700 97 0 0.0 0.9 0.00 0.00 0.00 49 1018.0
20260902214051 96 0 0.0 2.6 0.00 0.00 0.00 47 1018.0
20260902213552 96 0 0.0 5.2 0.00 0.00 0.00 48 1018.1
20260902213100 96 360 1.7 5.2 0.00 0.00 0.00 47 1018.1
20260902212552 96 360 2.6 5.2 0.00 0.00 0.00 47 1018.0
20260902212052 95 360 1.7 5.2 0.00 0.00 0.00 49 1018.1
20260902211604 95 360 0.0 1.7 0.00 0.00 0.00 51 1018.2
20260902211049 95 0 0.0 1.7 0.00 0.00 0.00 51 1018.2
20260902210550 95 360 0.0 3.5 0.00 0.00 0.00 49 1018.3
20260902210103 95 360 0.0 3.5 0.00 0.00 0.00 50 1018.3
20260902205556 95 360 0.9 3.5 0.00 0.00 0.00 50 1018.3
20260902205051 95 0 1.7 5.2 0.00 0.00 0.00 51 1018.3
20260902204608 95 360 0.0 5.2 0.00 0.00 0.00 52 1018.2
20260902204053 95 360 0.0 3.5 0.00 0.00 0.00 53 1018.4
20260902203554 95 360 0.9 3.5 0.00 0.00 0.00 53 1018.5
20260902203103 95 360 0.9 3.5 0.00 0.00 0.00 53 1018.5
20260902202554 95 360 0.9 3.5 0.00 0.00 0.00 52 1018.5
20260902202054 95 360 0.0 3.5 0.00 0.00 0.00 52 1018.5
20260902201610 95 0 0.0 3.5 0.00 0.00 0.00 52 1018.7
20260902201053 95 0 0.0 3.5 0.00 0.00 0.00 52 1018.7
20260902200553 95 360 1.7 3.5 0.00 0.00 0.00 51 1018.7
20260902200108 95 360 0.0 4.3 0.00 0.00 0.00 52 1018.8
20260902195555 95 0 0.9 4.3 0.00 0.00 0.00 52 1018.8
20260902195053 94 360 0.9 3.5 0.00 0.00 0.00 52 1019.0
20260902194602 94 360 0.0 2.6 0.00 0.00 0.00 52 1018.9
20260902194053 94 0 0.0 2.6 0.00 0.00 0.00 52 1019.0
20260902193554 94 360 0.0 2.6 0.00 0.00 0.00 55 1019.1
20260902193108 94 360 0.9 2.6 0.00 0.00 0.00 55 1019.2
20260902192557 94 360 0.9 3.5 0.00 0.00 0.00 54 1019.3
20260902192053 94 360 0.0 3.5 0.00 0.00 0.00 53 1019.3
20260902191637 93 360 0.9 4.3 0.00 0.00 0.00 54 1019.4
20260902191057 93 360 0.9 4.3 0.00 0.00 0.00 55 1019.5
20260902190558 93 360 0.9 7.0 0.00 0.00 0.00 55 1019.5
20260902190107 93 0 1.7 7.0 0.00 0.00 0.00 55 1019.6
20260902185554 94 0 1.7 4.3 0.00 0.00 0.00 55 1019.7
20260902185059 94 0 0.0 4.3 0.00 0.00 0.00 55 1019.8
20260902184656 94 360 0.0 4.3 0.00 0.00 0.00 57 1019.7
20260902184053 93 360 0.0 2.6 0.00 0.00 0.00 58 1019.6
20260902183557 93 360 0.0 2.6 0.00 0.00 0.00 59 1019.8
20260902183127 93 360 0.9 3.5 0.00 0.00 0.00 58 1019.8
20260902182553 93 360 0.9 3.5 0.00 0.00 0.00 58 1019.9
20260902182053 92 0 0.0 2.6 0.00 0.00 0.00 58 1019.9
20260902181613 92 360 0.0 3.5 0.00 0.00 0.00 58 1019.9
20260902181052 92 0 0.0 3.5 0.00 0.00 0.00 59 1019.9
20260902180553 92 0 0.9 4.3 0.00 0.00 0.00 59 1020.0
20260902180108 92 360 1.7 4.3 0.00 0.00 0.00 59 1020.1
20260902175554 92 360 0.0 4.3 0.00 0.00 0.00 59 1020.2
20260902175053 92 0 0.9 4.3 0.00 0.00 0.00 60 1020.2
20260902174602 92 0 0.9 4.3 0.00 0.00 0.00 60 1020.3
20260902174054 92 360 1.7 4.3 0.00 0.00 0.00 62 1020.5
20260902173554 92 360 0.9 4.3 0.00 0.00 0.00 63 1020.5
20260902173114 91 360 1.7 4.3 0.00 0.00 0.00 63 1020.5
20260902172555 91 360 0.0 3.5 0.00 0.00 0.00 63 1020.7
20260902172054 91 360 1.7 3.5 0.00 0.00 0.00 63 1020.8
20260902171618 91 360 0.9 5.2 0.00 0.00 0.00 62 1020.9
20260902171056 91 360 2.6 5.2 0.00 0.00 0.00 62 1020.9
20260902170553 91 360 0.0 5.2 0.00 0.00 0.00 63 1020.8
20260902170103 90 360 1.7 5.2 0.00 0.00 0.00 62 1021.0
20260902165553 90 360 0.9 4.3 0.00 0.00 0.00 62 1020.9
20260902165054 90 360 0.9 4.3 0.00 0.00 0.00 63 1021.0
20260902164606 90 360 0.9 4.3 0.00 0.00 0.00 64 1021.1
20260902164054 90 360 0.9 4.3 0.00 0.00 0.00 65 1021.3
20260902163554 89 0 0.0 4.3 0.00 0.00 0.00 64 1021.3
20260902163105 89 360 0.9 2.6 0.00 0.00 0.00 65 1021.5
20260902162553 89 360 0.9 2.6 0.00 0.00 0.00 65 1021.5
20260902162055 89 360 0.0 5.2 0.00 0.00 0.00 66 1021.6
20260902161602 89 0 1.7 5.2 0.00 0.00 0.00 65 1021.6
20260902161053 89 360 0.9 3.5 0.00 0.00 0.00 67 1021.5
20260902160554 88 360 0.9 3.5 0.00 0.00 0.00 67 1021.5
20260902160113 88 360 0.9 3.5 0.00 0.00 0.00 69 1021.6
20260902155554 88 360 0.0 3.5 0.00 0.00 0.00 69 1021.7
20260902155055 88 360 0.0 3.5 0.00 0.00 0.00 68 1021.7
20260902154609 88 0 0.0 3.5 0.00 0.00 0.00 70 1021.7
20260902154055 88 360 0.9 4.3 0.00 0.00 0.00 69 1021.7
20260902153553 88 0 0.0 4.3 0.00 0.00 0.00 70 1021.7